オテルマ彗星

39P/Oterma (2023)

English version
Home page
Updated on July 24, 2022

---------------------------------------------------------------------

・ プロフィール

・ 写真集

・ 軌道要素

Epoch 2023 June 25.0 TT = JDT 2460120.5
T 2023 July 11.61425 TT                                 Rudenko
q   5.7072015            (2000.0)            P               Q
n   0.05071490     Peri.  103.04381     +0.77632245     -0.62986880
a   7.2284583      Node   296.00209     +0.56735667     +0.71501150
e   0.2104538      Incl.    1.54700     +0.27464499     +0.30335432
P  19.4
From 115 observations 1948 Oct. 9-2020 Oct. 18, mean residual 0".7.

・ 光度変化

        m1 = 11.0 + 5 logΔ + 10.0 log r

---------------------------------------------------------------------

軌道要素はM.P.E.C. 2020-U270に掲載されたものです。
光度グラフはComet for Windowsで作成したものです。

---------------------------------------------------------------------

Copyright(C) Seiichi Yoshida (comet@aerith.net). All rights reserved.